Kalaeloa, HI

9:17 AM HST on July 28, 2017 (GMT -1000)
Kalaeloa (John Rodgers Field)

Weather History for PHJR - December, 2013

Change the Weather History Date:

Friday, December 20, 2013

  Actual Average (PHHI) Record (PHHI)
Temperature  
Mean Temperature 72 °F -  
Max Temperature 81 °F 74 °F 80 °F (2002)
Min Temperature 64 °F 62 °F 60 °F (2002)
Cooling Degree Days 8    
Growing Degree Days 22 (Base 50)    
Moisture  
Dew Point 65 °F    
Average Humidity 82    
Maximum Humidity 97    
Minimum Humidity 60    
Precipitation  
Precipitation 0.00 in - - ()
Sea Level Pressure  
Sea Level Pressure 30.05 in    
Wind  
Wind Speed 2 mph (ESE)    
Max Wind Speed 10 mph    
Max Gust Speed 20 mph    
Visibility 10 miles    
Events      
Averages and records for this station are not official NWS values.
T = Trace of Precipitation, MM = Missing Value Source: NWS Daily Summary

Daily Weather History Graph

Daily Weather History Graph

Search for Another Location

Airport or City:

Trip Planner

Search our weather history database for the weather conditions in past years. The results will help you decide how hot, cold, wet, or windy it might be!

Date:

Astronomy

Dec. 20, 2013 Rise Set
Actual Time 7:05 AM HST 5:55 PM HST
Civil Twilight 6:40 AM HST 6:19 PM HST
Nautical Twilight 6:13 AM HST 6:47 PM HST
Astronomical Twilight 5:45 AM HST 7:14 PM HST
Moon 9:04 PM HST (12/20) 9:24 AM HST (12/20)
Length of Visible Light 11h 38m
Length of Day
10h 50m
Waning Gibbous, 89% of the Moon is Illuminated
Dec 20
Waning Gibbous
Dec 25
Last Quarter
Jan 1
New
Jan 7
First Quarter
Jan 15
Full

Hourly Weather History & Observations

Time (HST) Temp. Heat Index Dew Point Humidity Pressure Visibility Wind Dir Wind Speed Gust Speed Precip Events Conditions
12:53 AM 68.0 °F - 64.0 °F 87% 30.05 in 10.0 mi Variable 3.5 mph - N/A   Clear
1:53 AM 66.9 °F - 64.0 °F 90% 30.05 in 10.0 mi Calm Calm - N/A   Clear
2:31 AM 66.2 °F - 64.4 °F 94% 30.03 in 10.0 mi Calm Calm - N/A   Partly Cloudy
2:53 AM 66.0 °F - 64.0 °F 93% 30.04 in 10.0 mi Calm Calm - N/A   Partly Cloudy
3:53 AM 66.0 °F - 63.0 °F 90% 30.04 in 10.0 mi Calm Calm - N/A   Clear
4:53 AM 64.9 °F - 63.0 °F 93% 30.05 in 10.0 mi Calm Calm - N/A   Clear
5:53 AM 66.0 °F - 64.0 °F 93% 30.06 in 10.0 mi Calm Calm - N/A   Clear
6:53 AM 64.9 °F - 64.0 °F 97% 30.06 in 10.0 mi Calm Calm - N/A   Clear
7:53 AM 68.0 °F - 64.9 °F 90% 30.07 in 10.0 mi Variable 3.5 mph - N/A   Clear
8:53 AM 73.9 °F - 66.9 °F 79% 30.08 in 10.0 mi Variable 3.5 mph - N/A   Clear
9:53 AM 77.0 °F - 66.9 °F 71% 30.09 in 10.0 mi Calm Calm - N/A   Clear
10:53 AM 78.1 °F - 66.9 °F 68% 30.08 in 10.0 mi ESE 6.9 mph - N/A   Clear
11:53 AM 79.0 °F - 68.0 °F 69% 30.04 in 10.0 mi ESE 5.8 mph - N/A   Clear
12:53 PM 81.0 °F 83.3 °F 66.9 °F 62% 30.01 in 10.0 mi East 8.1 mph - N/A   Partly Cloudy
1:53 PM 81.0 °F 83.0 °F 66.0 °F 60% 29.99 in 10.0 mi ESE 8.1 mph 19.6 mph N/A   Mostly Cloudy
2:53 PM 79.0 °F - 69.1 °F 72% 29.99 in 10.0 mi SE 10.4 mph - N/A   Mostly Cloudy
3:53 PM 78.1 °F - 68.0 °F 71% 30.00 in 10.0 mi Variable 6.9 mph - N/A   Scattered Clouds
4:53 PM 75.0 °F - 64.9 °F 71% 30.01 in 10.0 mi Variable 3.5 mph - N/A   Scattered Clouds
5:53 PM 73.9 °F - 66.0 °F 76% 30.03 in 10.0 mi Calm Calm - N/A   Partly Cloudy
6:53 PM 73.0 °F - 66.0 °F 79% 30.05 in 10.0 mi Calm Calm - N/A   Clear
7:53 PM 70.0 °F - 66.0 °F 87% 30.07 in 10.0 mi Calm Calm - N/A   Mostly Cloudy
8:53 PM 69.1 °F - 64.9 °F 87% 30.07 in 10.0 mi Calm Calm - N/A   Clear
9:53 PM 66.9 °F - 64.9 °F 93% 30.07 in 10.0 mi Calm Calm - N/A   Clear
10:53 PM 69.1 °F - 64.9 °F 87% 30.07 in 10.0 mi Calm Calm - N/A   Partly Cloudy
11:30 PM 68.0 °F - 64.4 °F 88% 30.04 in 10.0 mi Calm Calm - N/A   Partly Cloudy
11:53 PM 68.0 °F - 64.9 °F 90% 30.06 in 10.0 mi Calm Calm - N/A   Partly Cloudy